RRR4216 EGDY-LPLA

Flight info

Callsign RRR4216
Flight time N/A
Altitude 32000
Route SIDHO DCT AMPOP/M064F320 DCT LASNO DCT 45N015W 42N021W
Aircraft A400/H-SDE2E3FGHIJ4J5M1RWXY/LB1D1

Departure

Time N/A
Airport RNAS Yeovilton (EGDY)

Arrival

Time 2026-04-20 18:03
Airport Lajes Airport (LPLA)
Time Latitude Longitude Altitude Speed Heading
2026-04-20 17:51 39.19933 -26.59055 23092 ft 447 kts 205°
2026-04-20 17:51 39.17002 -26.60271 22339 ft 439 kts 205°
2026-04-20 17:51 39.14138 -26.61458 21931 ft 424 kts 205°
2026-04-20 17:51 39.11365 -26.62603 21363 ft 415 kts 205°
2026-04-20 17:52 39.08629 -26.63738 20644 ft 411 kts 205°
2026-04-20 17:52 39.05947 -26.64849 19792 ft 401 kts 205°
2026-04-20 17:52 39.03309 -26.65944 18890 ft 395 kts 205°
2026-04-20 17:52 39.00723 -26.67015 17890 ft 382 kts 205°
2026-04-20 17:53 38.98266 -26.68022 16926 ft 355 kts 205°
2026-04-20 17:53 38.96034 -26.68921 16539 ft 320 kts 205°
2026-04-20 17:53 38.93979 -26.69753 15583 ft 311 kts 206°
2026-04-20 17:53 38.91908 -26.70613 14218 ft 315 kts 205°
2026-04-20 17:54 38.89822 -26.71486 12826 ft 315 kts 205°
2026-04-20 17:54 38.87748 -26.72349 11636 ft 309 kts 204°
2026-04-20 17:54 38.85773 -26.73155 10880 ft 287 kts 205°
2026-04-20 17:54 38.83912 -26.73912 10039 ft 276 kts 205°
2026-04-20 17:55 38.82102 -26.74653 9057 ft 269 kts 204°
2026-04-20 17:55 38.80344 -26.75375 8164 ft 262 kts 204°
2026-04-20 17:55 38.78621 -26.76084 7369 ft 258 kts 204°
2026-04-20 17:55 38.76921 -26.76785 6571 ft 254 kts 203°
2026-04-20 17:56 38.75259 -26.77468 5867 ft 248 kts 202°
2026-04-20 17:56 38.73614 -26.78145 5547 ft 251 kts 202°
2026-04-20 17:56 38.71906 -26.78854 5247 ft 267 kts 202°
2026-04-20 17:56 38.70142 -26.79670 4872 ft 275 kts 209°
2026-04-20 17:57 38.68625 -26.81067 4642 ft 265 kts 229°
2026-04-20 17:57 38.67405 -26.82822 4629 ft 264 kts 234°
2026-04-20 17:57 38.66253 -26.84633 4510 ft 261 kts 235°
2026-04-20 17:57 38.65144 -26.86387 4509 ft 247 kts 236°
2026-04-20 17:58 38.64075 -26.88071 4477 ft 241 kts 235°
2026-04-20 17:58 38.63070 -26.89764 4191 ft 236 kts 243°
2026-04-20 17:58 38.62465 -26.91658 3789 ft 227 kts 262°
2026-04-20 17:58 38.62474 -26.93639 3287 ft 224 kts 286°
2026-04-20 17:59 38.63147 -26.95404 2867 ft 221 kts 309°
2026-04-20 17:59 38.64221 -26.96788 2402 ft 219 kts 319°
2026-04-20 17:59 38.65376 -26.98011 2066 ft 209 kts 321°
2026-04-20 17:59 38.66426 -26.99080 2008 ft 182 kts 321°
2026-04-20 18:00 38.67361 -27.00022 1989 ft 161 kts 321°
2026-04-20 18:00 38.68185 -27.00876 1961 ft 147 kts 320°
2026-04-20 18:00 38.68962 -27.01669 1878 ft 140 kts 322°
2026-04-20 18:00 38.69730 -27.02413 1742 ft 137 kts 322°
2026-04-20 18:01 38.70494 -27.03151 1633 ft 138 kts 322°
2026-04-20 18:01 38.71235 -27.03907 1451 ft 133 kts 320°
2026-04-20 18:01 38.71959 -27.04660 1210 ft 134 kts 322°
2026-04-20 18:01 38.72685 -27.05416 950 ft 136 kts 321°
2026-04-20 18:02 38.73422 -27.06180 714 ft 135 kts 322°
2026-04-20 18:02 38.74148 -27.06939 530 ft 135 kts 319°
2026-04-20 18:02 38.74879 -27.07710 328 ft 136 kts 319°
2026-04-20 18:02 38.75603 -27.08470 197 ft 126 kts 320°
2026-04-20 18:03 38.76121 -27.09012 195 ft 67 kts 321°
2026-04-20 18:03 38.76393 -27.09293 204 ft 38 kts 322°
2026-04-20 18:03 38.76537 -27.09438 200 ft 14 kts 336°
2026-04-20 18:03 38.76608 -27.09371 191 ft 15 kts 52°
2026-04-20 18:04 38.76623 -27.09348 201 ft 0 kts 50°
2026-04-20 18:04 38.76630 -27.09337 200 ft 6 kts 50°
2026-04-20 18:05 38.76742 -27.09195 191 ft 12 kts 355°
2026-04-20 18:05 38.76795 -27.09265 196 ft 11 kts 276°
2026-04-20 18:05 38.76784 -27.09357 199 ft 3 kts 261°